Location: Brachbach
(49.1847°N, 9.7240°E)
Time: 14:42:13
(UTC+00:00)

CZ-2C R/B - Pass Details

Date: 09 August 2024
Orbit: 782 x 869 km, 98.3° (Epoch: 15 September)

Event Time Altitude Azimuth Distance (km) Brightness Sun altitude
Exits shadow 02:50:16 13° 249° (WSW) 2,306 4.4 -11.0°
Maximum altitude 02:52:19 15° 273° (W) 2,145 4.4 -10.8°
Drops below altitude 10° 02:55:24 10° 308° (NW) 2,475 5.0 -10.4°
Sets 02:58:53 0° 331° (NNW) 3,398 6.0 -10.0°
